Date,TemperatureHighF,TemperatureAvgF,TemperatureLowF,DewpointHighF,DewpointAvgF,DewpointLowF,HumidityHigh,HumidityAvg,HumidityLow,PressureMaxIn,PressureMinIn,WindSpeedMaxMPH,WindSpeedAvgMPH,GustSpeedMaxMPH,PrecipitationSumIn
2012-1-1,52.0,45.2,37.2,46.3,41.0,35.6,96,86,66,29.87,29.43,6,1,15,0.12
2012-1-2,46.1,38.6,31.5,45.0,25.3,19.5,96,60,44,29.58,29.42,11,5,18,0.00
2012-1-3,31.4,24.4,13.9,23.1,10.7,2.0,71,56,45,29.91,29.57,3,2,11,0.00
2012-1-4,25.6,19.3,11.4,13.3,6.3,1.7,70,57,40,29.99,29.75,5,1,7,0.00
2012-1-5,40.1,31.8,23.5,24.8,20.7,13.8,71,64,53,29.74,29.60,6,1,6,0.00
2012-1-6,50.8,40.0,30.4,33.4,29.2,23.4,80,66,50,29.73,29.49,4,0,4,0.00
2012-1-7,60.8,47.9,36.5,41.4,35.2,30.0,82,62,43,29.74,29.48,10,2,17,0.00
2012-1-8,43.9,43.7,43.5,30.9,30.7,30.5,60,60,60,29.75,29.75,0,0,0,0.00
2012-1-9,40.4,34.8,27.2,22.5,21.1,20.0,77,58,44,30.09,29.95,2,1,2,0.00
2012-1-11,38.1,35.8,33.4,31.8,30.5,29.1,84,81,78,29.86,29.84,0,0,0,0.00
2012-1-12,42.0,40.8,39.8,40.4,39.5,39.0,98,95,92,29.33,29.20,5,1,7,0.75
2012-1-13,48.5,35.4,27.8,48.0,28.6,14.9,99,77,55,29.56,29.01,15,7,23,0.06
2012-1-14,31.5,28.4,24.3,19.3,17.5,12.7,69,63,57,29.85,29.56,9,3,13,0.00
2012-1-15,24.4,18.9,13.5,12.5,2.5,-1.5,65,49,33,30.35,29.86,4,1,5,0.00
2012-1-16,34.4,23.3,9.5,29.8,12.7,2.5,91,65,45,30.36,29.93,5,1,7,0.00
2012-1-17,35.5,34.0,32.6,34.7,32.5,30.5,97,94,91,29.91,29.75,1,0,1,0.13
2012-1-18,37.5,36.8,36.0,23.6,21.9,18.7,59,55,47,29.71,29.63,5,3,5,0.00
2012-1-19,28.7,24.9,20.2,17.7,13.4,10.6,67,61,58,30.03,29.93,1,0,15,0.00
2012-1-20,28.1,26.2,24.1,10.4,9.5,9.0,53,49,47,29.98,29.96,3,2,9,0.00
2012-1-23,35.7,34.1,32.6,34.9,33.3,31.8,97,97,97,30.02,29.90,0,0,0,0.05
2012-1-24,52.7,47.0,42.6,42.4,37.8,33.6,97,70,64,29.89,29.72,7,2,12,0.00
2012-1-25,42.3,38.4,36.5,33.6,28.7,27.0,71,68,64,30.08,29.89,3,1,3,0.00
2012-1-26,35.8,35.2,34.4,30.7,30.5,30.4,85,83,81,29.98,29.96,0,0,0,0.00
2012-1-30,35.9,35.2,34.4,16.6,16.3,15.7,46,46,45,30.01,29.98,5,5,10,0.00
2012-1-31,51.7,45.9,40.3,31.0,28.7,27.1,59,51,45,29.92,29.86,3,2,6,0.00
2012-2-1,60.7,56.0,48.7,46.6,45.0,42.5,79,67,59,29.70,29.64,8,5,11,0.06
2012-2-2,42.8,39.8,34.2,33.6,30.3,23.3,85,69,64,30.02,29.78,3,1,5,0.00
2012-2-3,44.2,36.0,27.9,24.5,21.8,17.9,68,57,43,30.22,30.02,4,0,4,0.00
2012-2-4,46.1,38.9,30.9,29.4,26.3,23.9,75,61,51,30.10,29.89,3,0,6,0.00
2012-2-5,39.4,33.2,29.7,23.7,21.4,19.5,73,62,50,29.95,29.87,1,0,3,0.00
2012-2-6,43.2,30.2,26.3,28.5,22.0,19.6,78,71,56,29.93,29.85,4,1,5,0.00
2012-2-7,47.9,46.2,43.5,31.6,30.9,30.5,61,55,51,29.84,29.81,3,2,5,0.00
2012-2-8,30.3,30.1,29.9,18.5,18.5,18.5,62,62,61,30.09,30.09,0,0,0,0.00
2012-2-9,47.0,39.8,32.4,24.4,22.2,18.4,68,50,35,29.91,29.83,4,1,7,0.01
2012-2-10,45.3,37.0,27.1,27.7,25.1,22.3,82,63,47,29.91,29.69,6,2,6,0.00
2012-2-11,37.6,34.7,29.8,33.8,28.5,21.9,95,79,62,29.69,29.35,3,1,5,0.05
2012-2-12,31.8,25.3,18.5,22.9,12.0,0.1,85,57,40,29.74,29.46,10,3,17,0.00
2012-2-13,43.8,32.6,25.6,21.0,18.8,14.7,67,57,38,29.80,29.70,9,3,11,0.00
2012-2-14,46.5,38.9,33.1,35.8,23.2,18.5,92,54,34,29.88,29.78,2,0,5,0.04
2012-2-15,46.5,39.7,34.7,40.9,36.3,30.9,97,88,73,30.05,29.84,1,0,5,0.04
2012-2-16,40.6,35.8,29.1,40.1,34.0,27.3,98,93,82,30.07,29.80,1,0,1,0.19
2012-2-17,50.7,43.3,32.6,42.8,33.9,23.8,99,73,42,29.79,29.70,3,1,12,0.03
2012-2-18,47.0,39.3,31.9,36.0,27.2,23.2,91,64,41,29.86,29.65,6,1,8,0.03
2012-2-19,45.1,37.9,32.5,30.4,25.6,21.6,80,62,43,29.86,29.74,2,0,13,0.00
2012-2-20,45.7,35.3,28.0,22.8,19.9,16.2,69,55,35,30.11,29.77,3,1,5,0.00
2012-2-21,45.0,36.1,23.1,37.8,28.0,16.9,87,73,53,30.13,29.63,6,2,7,0.00
2012-2-22,56.4,47.3,40.3,40.7,36.3,31.5,85,68,41,29.63,29.25,8,2,17,0.00
2012-2-23,57.1,47.4,42.1,41.7,35.7,28.5,95,66,42,29.55,29.16,6,1,13,0.00
2012-2-24,43.1,37.9,33.2,40.3,35.5,28.8,98,92,57,29.53,29.11,12,1,15,0.75
2012-2-25,43.2,39.0,32.4,30.2,24.3,14.8,77,56,43,29.77,29.17,16,8,19,0.00
2012-2-26,43.7,34.5,28.4,20.7,17.9,15.3,69,51,38,30.21,29.79,5,2,11,0.00
2012-2-27,56.1,41.7,25.3,38.3,30.3,20.0,90,66,42,30.21,29.85,6,2,10,0.00
2012-2-28,49.7,42.0,36.6,30.9,25.6,23.4,62,52,42,30.16,29.91,7,1,7,0.00
2012-2-29,38.7,35.8,33.7,32.7,26.2,23.3,92,68,60,30.14,29.88,0,0,2,0.06
2012-3-1,38.8,37.4,35.0,37.2,35.7,31.8,97,94,88,29.74,29.46,1,0,1,0.12
2012-3-2,38.7,35.1,31.7,36.9,31.8,27.8,95,88,83,29.90,29.59,3,1,4,0.09
2012-3-3,57.8,46.7,38.1,48.8,36.0,22.9,99,73,29,29.57,29.21,9,3,14,0.14
2012-3-4,44.2,39.6,33.6,27.3,23.9,21.2,69,54,42,29.52,29.35,5,1,6,0.00
2012-3-5,41.8,32.4,26.9,20.3,14.2,2.1,65,48,29,30.15,29.53,9,2,9,0.00
2012-3-6,44.4,33.0,23.6,26.0,16.4,7.6,67,52,32,30.38,30.16,4,1,4,0.00
2012-3-7,61.8,38.8,33.4,37.2,28.9,22.3,81,69,40,30.34,30.11,5,1,8,0.00
2012-3-8,70.1,65.3,56.6,53.3,51.7,50.2,79,62,54,29.97,29.58,9,6,15,0.00
2012-3-9,63.6,42.5,34.3,51.6,29.2,21.5,88,60,37,30.03,29.57,10,2,15,0.02
2012-3-10,42.4,34.2,27.6,22.7,17.2,13.3,66,50,37,30.30,30.04,3,1,6,0.00
2012-3-11,61.1,45.6,29.9,33.1,26.3,18.3,67,48,33,30.30,30.08,7,2,13,0.00
2012-3-12,70.6,56.5,42.9,41.4,37.0,32.6,70,50,32,30.11,29.89,3,1,6,0.00
2012-3-13,60.0,55.2,52.2,55.5,48.5,41.2,94,79,54,29.89,29.79,4,0,4,0.08
2012-3-14,66.4,63.5,59.0,43.3,36.8,33.8,56,38,31,29.90,29.87,5,2,6,0.00
2012-3-15,50.2,45.6,42.4,42.9,41.3,40.3,93,85,75,30.10,30.03,3,1,5,0.00
2012-3-16,49.7,44.3,41.6,47.2,43.0,40.3,98,95,91,30.07,29.89,1,0,3,0.03
2012-3-17,64.7,51.1,37.9,51.8,45.8,37.4,99,83,60,30.14,29.96,3,0,4,0.01
2012-3-18,66.5,52.9,46.0,54.8,48.4,43.9,97,85,66,30.14,29.96,4,1,5,0.00
2012-3-19,76.5,57.3,48.3,60.6,45.7,-99.9,97,77,57,30.00,29.90,6,1,8,0.00
2012-3-20,73.7,61.7,50.2,61.8,55.3,47.4,95,81,60,30.10,29.99,3,1,3,0.00
2012-3-21,68.7,61.7,57.5,61.6,58.9,56.4,99,91,77,30.13,30.04,2,0,6,0.00
2012-3-22,75.5,28.6,-90.0,62.7,12.0,-99.9,100,72,57,30.06,29.84,5,1,6,0.00
2012-3-23,74.2,64.9,55.5,59.7,55.1,44.0,98,72,55,29.88,29.81,4,1,6,0.00
2012-3-24,61.8,56.9,50.6,47.8,35.9,29.6,80,47,32,29.86,29.77,4,1,7,0.00
2012-3-25,53.5,46.6,41.5,44.8,41.3,35.0,93,82,60,29.77,29.50,1,0,2,0.11
2012-3-26,53.4,47.6,42.7,44.4,39.5,24.1,95,76,36,29.60,29.45,5,2,6,0.00
2012-3-27,52.6,45.0,33.1,19.3,10.9,6.9,41,26,17,30.05,29.93,2,1,6,0.00
2012-3-28,58.9,45.5,39.7,46.9,27.8,16.3,89,51,34,29.91,29.41,6,1,6,0.11
2012-4-2,48.8,45.5,43.1,35.5,34.6,33.3,70,66,58,29.56,29.52,3,2,4,0.02
2012-4-3,45.6,44.9,44.3,22.6,22.3,22.0,42,40,39,29.70,29.70,1,0,1,0.00
2012-4-4,66.7,58.3,46.6,34.9,30.7,26.4,48,36,26,29.50,29.30,5,3,6,0.00
2012-4-5,58.2,46.6,36.8,31.4,28.9,27.0,71,51,33,29.71,29.51,2,0,2,0.00
2012-4-6,58.1,25.2,39.7,29.4,-38.1,-99.9,57,19,27,29.80,29.65,3,-511,4,0.00
2012-4-7,60.8,23.3,50.0,29.1,-49.1,-99.9,33,12,24,29.84,29.70,6,-588,6,0.00
2012-4-8,66.8,21.8,53.8,31.6,-54.9,-99.9,38,10,21,29.78,29.42,5,-648,13,0.00
2012-4-9,63.2,29.9,47.9,26.5,-34.5,-99.9,43,15,24,29.50,29.37,11,-474,19,0.00
2012-4-10,58.0,29.3,44.8,36.9,-26.6,-99.9,58,26,38,29.56,29.43,7,-452,14,0.00
2012-4-11,52.6,27.5,43.3,35.0,-25.0,-99.9,70,31,43,29.67,29.55,2,-435,2,0.00
2012-4-12,59.0,27.1,41.9,38.6,-32.2,-99.9,79,25,38,29.89,29.67,3,-499,6,0.00
2012-4-13,65.5,32.2,56.9,34.6,-31.9,-99.9,43,17,28,29.97,29.86,3,-483,7,0.00
2012-4-14,71.7,36.7,46.0,36.5,-24.0,-99.9,57,19,23,29.98,29.78,6,-430,9,0.00
2012-4-15,75.7,38.1,59.1,60.4,-13.8,-99.9,81,36,59,29.80,29.72,8,-452,9,0.00
2012-4-16,76.2,12.1,61.8,60.8,-72.2,-99.9,83,27,39,29.79,29.66,3,-499,7,0.00
2012-4-17,77.2,27.3,68.1,51.6,-45.8,-99.9,55,17,24,29.94,29.67,4,-510,7,0.00
2012-4-18,59.0,27.3,47.2,35.3,-32.9,-99.9,57,23,40,30.04,29.94,1,-499,2,0.00
2012-4-19,70.6,46.3,51.4,49.1,6.7,-99.9,91,41,43,29.88,29.76,4,-274,6,0.00
2012-4-20,71.8,33.8,48.7,55.9,-20.7,-99.9,95,33,50,29.80,29.64,3,-477,6,0.00
2012-4-21,74.8,41.4,57.8,61.4,-2.5,-99.9,97,46,61,29.62,29.43,4,-387,7,0.00
2012-4-22,49.9,20.2,44.5,45.3,-38.7,-99.9,97,37,79,29.57,29.12,3,-574,4,0.55
2012-4-23,50.7,16.7,47.8,47.8,-51.4,-99.9,99,28,78,29.17,28.93,5,-665,15,0.00
2012-4-24,59.0,18.1,41.6,36.3,-51.7,-99.9,80,20,34,29.47,29.16,8,-636,21,0.00
2012-4-25,59.8,24.1,40.2,38.4,-37.3,-99.9,86,26,38,29.60,29.48,6,-537,15,0.00
2012-4-26,60.7,29.5,48.3,52.3,-22.2,-99.9,81,38,66,29.66,29.36,2,-466,9,0.00
2012-4-27,50.3,28.4,45.4,35.7,-22.0,-99.9,68,32,49,29.77,29.35,9,-409,26,0.00
2012-5-1,66.5,26.9,51.9,58.4,-32.2,-99.9,98,36,74,29.86,29.74,0,-566,5,0.01
2012-5-2,52.9,27.1,49.7,50.0,-24.1,-99.9,94,47,88,29.97,29.86,1,-468,7,0.05
2012-5-3,57.8,27.5,51.4,55.2,-23.0,-99.9,99,48,91,29.93,29.85,1,-499,7,0.00
2012-5-4,75.0,12.6,-90.0,66.1,-59.9,-99.9,100,29,70,29.88,29.62,3,-510,10,0.01
2012-5-5,64.3,34.5,57.5,59.4,-11.8,-99.9,96,49,83,29.82,29.67,2,-441,7,0.00
2012-5-6,65.3,32.8,56.1,55.0,-19.0,-99.9,94,38,59,29.89,29.81,2,-467,11,0.00
2012-5-7,67.4,41.1,51.9,53.9,5.0,-99.9,91,51,58,29.92,29.86,2,-297,11,0.03
2012-5-8,64.9,58.4,52.9,58.0,52.8,46.3,96,82,73,29.86,29.61,4,1,17,0.04
2012-5-9,70.1,62.7,57.6,66.1,61.5,57.0,100,96,87,29.61,29.35,1,0,9,0.31
2012-5-10,62.3,57.8,53.9,58.0,53.3,45.1,99,87,57,29.37,29.27,4,1,19,0.24
2012-5-14,66.4,66.4,66.4,62.1,62.1,62.1,86,86,86,29.91,29.91,0,0,14,0.00
2012-5-15,62.8,62.8,62.8,61.3,61.3,61.3,95,95,95,29.83,29.83,0,0,6,0.00
2012-5-21,64.0,62.0,59.8,63.1,61.4,58.9,99,98,97,29.94,29.76,1,0,0,1.04
2012-5-22,70.8,65.2,60.5,67.8,64.3,60.2,100,97,86,29.75,29.58,0,0,0,0.16
2012-5-23,75.1,61.9,-90.0,68.3,61.0,-93.5,100,97,76,29.82,29.63,2,0,8,0.08
2012-5-24,68.5,65.0,61.2,66.4,63.9,60.9,99,96,92,29.98,29.83,1,0,10,0.14
2012-5-25,75.0,62.2,-90.0,70.3,61.1,-92.4,100,96,83,29.99,29.90,2,0,9,0.00
2012-5-26,68.9,68.0,67.3,68.9,67.9,67.0,100,100,99,29.91,29.89,0,0,5,0.00
2012-5-30,75.3,10.9,-90.0,70.1,6.5,-96.7,99,80,59,29.55,29.49,2,0,9,0.01
2012-5-31,75.1,11.6,-90.0,65.1,2.9,-99.9,97,66,40,29.71,29.49,2,0,2,0.00
2012-6-1,72.3,64.9,59.0,61.1,55.8,50.0,94,73,60,29.79,29.58,4,1,6,0.02
2012-6-2,75.1,66.0,57.7,65.0,58.5,50.2,100,79,50,29.56,29.43,8,2,15,0.60
2012-6-3,56.8,53.1,50.5,53.2,50.1,49.1,96,90,80,29.54,29.51,0,0,0,0.00
2012-6-4,62.3,58.0,54.9,57.7,53.4,50.8,97,85,68,29.53,29.40,0,0,4,0.25
2012-6-5,64.5,61.1,56.0,55.7,52.8,49.8,97,75,60,29.72,29.65,0,0,4,0.06
2012-6-6,72.6,61.3,49.0,59.5,53.7,48.7,100,79,49,29.77,29.70,2,0,6,0.01
2012-6-7,75.6,54.5,-90.0,61.0,47.6,-99.9,99,79,44,29.75,29.66,1,0,10,0.01
2012-6-8,75.1,8.5,-90.0,61.1,1.7,-99.9,99,71,42,29.71,29.59,4,1,14,0.01
2012-6-9,75.5,60.6,-90.0,67.2,54.9,-95.5,94,82,65,29.75,29.63,0,0,6,0.00
2012-6-10,65.8,65.3,64.8,64.8,64.3,63.9,98,97,94,29.81,29.76,0,0,1,0.00
2012-6-11,76.2,59.2,63.0,66.1,35.1,-99.9,89,68,46,30.02,29.97,4,1,4,0.00
2012-6-12,72.1,66.5,62.2,67.8,64.7,59.2,99,94,85,29.96,29.68,2,1,9,0.62
2012-6-13,75.1,67.5,62.7,67.9,64.7,61.8,100,91,71,29.84,29.65,1,0,4,0.24
2012-6-14,75.0,40.5,-90.0,64.5,34.9,-96.5,99,80,60,30.02,29.84,2,0,6,0.00
2012-6-15,76.0,10.5,-90.0,64.3,3.4,-99.7,97,71,46,30.08,30.02,2,0,3,0.00
2012-6-16,78.1,32.4,-90.0,60.7,11.8,-99.9,97,71,45,30.11,29.99,3,0,5,0.00
2012-6-17,72.0,64.5,56.3,61.2,58.5,54.3,93,81,67,30.02,29.86,2,0,5,0.00
2012-6-18,71.8,62.7,53.7,59.8,56.0,52.9,98,80,61,29.93,29.86,2,0,3,0.00
2012-6-19,76.1,54.3,59.0,68.3,32.0,-99.9,93,84,74,29.94,29.84,5,1,7,0.00
2012-6-20,74.7,-13.3,-90.0,71.4,-39.6,-99.9,99,75,52,29.85,29.70,4,1,10,0.00
2012-6-21,75.5,6.3,74.8,72.1,-85.6,-99.9,91,67,46,29.72,29.55,5,1,5,0.00
2012-6-22,75.9,17.1,72.8,71.8,-60.8,-99.9,90,75,56,29.57,29.51,3,0,5,0.62
2012-8-27,-200.0,0.0,200.0,-99.9,-99.9,-99.9,99,86,73,29.92,29.73,3,1,12,0.13
2012-8-28,-200.0,0.0,200.0,-99.9,-99.9,-99.9,99,77,48,29.72,29.58,5,1,15,0.07
2012-8-29,74.9,47.3,64.3,63.5,9.6,-99.9,89,64,43,29.79,29.68,1,0,6,0.00
2012-8-30,74.7,38.1,56.2,59.9,-7.0,-99.9,99,66,34,29.87,29.80,4,1,10,0.00
2012-8-31,72.8,26.0,61.8,64.4,-36.3,-99.9,91,64,36,29.83,29.67,7,2,15,0.00
2012-9-1,74.9,22.9,72.4,70.4,-48.1,-99.9,88,67,37,29.84,29.69,1,0,6,0.00
2012-9-2,75.0,37.7,70.7,71.4,-11.5,-99.9,99,81,59,29.87,29.78,2,0,11,0.94
2012-9-3,74.4,58.2,69.5,72.1,36.8,-99.9,99,88,72,29.94,29.86,2,0,11,0.00
2012-9-4,75.9,33.0,71.0,75.6,-22.0,-99.9,100,93,82,29.89,29.62,3,0,11,0.27
2012-9-5,75.0,3.4,75.0,73.8,-92.0,-99.9,100,98,93,29.61,29.56,4,1,21,0.12
2012-9-6,73.5,9.2,73.5,70.7,-78.6,-99.9,91,82,72,29.69,29.66,1,0,21,0.00
2012-9-7,-200.0,0.0,200.0,-99.9,-99.9,-99.9,66,64,62,29.66,29.65,2,2,5,0.00
2012-9-10,74.2,62.7,54.9,57.7,42.7,-99.9,82,60,46,29.92,29.75,1,0,12,0.00
2012-9-11,74.1,53.7,47.0,55.9,34.6,-99.9,95,70,43,30.05,29.92,0,0,6,0.00
2012-9-12,74.1,40.5,53.2,61.3,4.1,-99.9,98,73,43,30.13,30.05,3,0,9,0.00
2012-9-13,74.7,44.5,56.9,64.3,11.3,-99.9,98,77,48,30.15,30.04,4,0,11,0.00
2012-9-14,73.3,43.4,59.4,65.5,8.2,-99.9,99,80,51,30.06,29.86,4,1,12,0.00
2012-9-19,73.2,64.6,55.8,53.4,51.0,49.1,86,63,44,29.96,29.77,1,0,9,0.00
2012-9-20,69.3,59.9,50.2,60.3,54.2,47.7,92,82,69,30.00,29.89,1,0,9,0.00
2012-9-21,74.4,61.6,59.0,62.2,51.6,-99.9,95,82,59,29.90,29.79,1,0,7,0.00
2012-9-22,74.7,50.5,56.0,69.6,28.1,-99.9,100,91,72,29.79,29.56,3,1,15,0.30
2012-9-23,71.4,61.8,50.3,64.0,52.9,48.4,99,76,45,29.89,29.62,3,0,10,0.01
2012-9-24,68.7,56.7,47.5,52.3,47.5,44.5,96,75,43,29.94,29.87,3,0,13,0.00
2012-9-25,74.4,60.5,45.8,58.1,50.7,44.1,95,73,45,29.97,29.89,7,1,19,0.00
2012-9-26,74.5,64.6,62.0,66.4,55.7,-99.9,93,84,75,29.91,29.78,3,0,11,0.02
2012-9-27,74.1,51.1,64.7,66.9,24.7,-99.9,99,83,63,29.95,29.82,1,0,6,0.02
2012-9-28,70.7,63.7,59.2,67.5,61.9,57.2,99,94,77,29.95,29.73,3,0,19,0.49
2012-9-29,66.3,60.8,57.9,59.1,57.8,56.7,96,90,76,29.72,29.64,0,0,4,0.00
2012-9-30,68.7,60.3,54.8,58.0,54.4,49.7,97,82,57,29.65,29.54,4,0,14,0.00
2012-10-1,72.3,60.0,49.2,57.6,52.8,47.7,95,79,59,29.74,29.59,6,1,18,0.00
2012-10-2,67.9,62.0,58.4,63.6,60.4,55.8,100,95,79,29.81,29.74,0,0,6,0.55
2012-10-3,69.7,66.4,62.6,69.7,66.4,62.6,100,100,100,29.89,29.76,0,0,3,0.48
2012-10-4,73.0,68.8,63.5,71.5,68.6,63.5,100,99,94,29.91,29.80,2,0,10,0.87
2012-10-5,73.6,44.7,-90.0,65.6,24.5,-99.9,100,90,58,29.85,29.74,3,0,7,0.00
2012-10-9,60.0,57.3,51.5,54.5,53.2,49.3,92,86,81,29.98,29.86,0,0,4,0.01
2012-10-10,67.4,58.1,53.1,59.9,53.8,44.9,99,87,66,29.85,29.56,7,1,16,0.18
2012-10-11,61.4,53.1,46.4,43.9,40.3,37.7,78,63,44,29.96,29.73,3,1,19,0.00
2012-10-12,57.0,47.9,41.8,47.0,42.6,39.8,94,82,61,29.92,29.84,3,0,14,0.00
2012-10-15,71.4,69.4,66.1,64.2,63.4,62.1,87,81,77,29.56,29.47,5,2,10,0.00
2012-10-16,61.8,52.6,42.9,44.8,37.8,-99.9,89,63,52,29.69,-32.77,4,-30,10,0.00
2012-10-17,58.8,45.2,38.3,44.5,40.7,37.3,98,85,59,29.79,29.70,1,0,3,0.00
2012-10-19,67.5,66.0,64.0,67.0,65.6,63.4,99,98,97,29.60,29.44,3,1,6,1.14
2012-10-20,72.0,63.1,52.9,65.6,55.8,44.1,100,79,47,29.60,29.42,6,1,9,0.01
2012-10-21,68.0,56.9,46.6,48.4,45.3,43.2,90,67,47,29.79,29.60,6,1,12,0.00
2012-10-22,71.0,59.4,51.7,50.8,47.1,43.7,79,65,47,29.87,29.77,4,1,4,0.00
2012-10-23,61.8,55.8,49.1,55.9,51.4,46.0,98,86,68,29.90,29.83,0,0,0,0.01
2012-10-24,59.0,56.8,55.0,57.3,55.3,53.6,98,95,89,29.98,29.87,0,0,0,0.00
2012-10-25,61.3,56.7,54.7,56.3,54.6,53.7,98,93,79,30.05,29.98,0,0,1,0.00
2012-10-26,65.4,63.0,60.9,60.2,59.3,57.7,94,88,82,30.00,29.89,0,0,3,0.00
2012-10-27,67.3,62.2,59.3,60.3,58.4,56.5,96,88,74,29.89,29.71,1,0,1,0.00
2012-10-28,59.9,58.4,56.5,56.3,51.3,46.2,89,77,66,29.70,29.54,2,0,2,0.00
2012-11-5,47.4,40.2,31.8,31.0,27.7,23.6,74,61,50,29.96,29.77,1,0,2,0.00
2012-11-6,45.9,36.1,26.3,27.9,24.5,22.3,86,64,43,30.01,29.88,1,0,2,0.00
2012-11-7,39.9,35.6,32.4,33.3,29.9,23.4,98,81,57,29.87,29.55,3,1,4,0.02
2012-11-8,41.1,36.8,33.2,33.0,29.7,27.2,98,77,59,29.55,29.52,3,1,5,0.04
2012-11-9,55.5,48.9,42.9,36.9,33.9,28.7,78,57,43,29.97,29.82,4,1,10,0.00
2012-11-10,54.5,47.3,38.6,45.1,41.0,35.1,92,79,68,30.20,29.97,0,0,2,0.00
2012-11-11,66.2,52.9,42.2,53.6,48.0,40.9,96,85,58,30.27,30.19,5,1,7,0.00
2012-11-12,67.7,55.8,43.3,60.9,53.5,42.5,99,92,78,30.24,29.96,3,1,7,0.00
2012-11-13,63.1,48.7,39.9,61.0,44.9,31.9,98,87,70,30.22,29.89,3,0,10,0.18
2012-11-14,46.9,39.9,35.0,32.6,30.0,28.5,80,68,56,30.30,30.22,1,0,6,0.01
2012-11-15,47.0,39.5,34.4,32.7,30.2,27.8,83,70,55,30.25,30.08,1,0,2,0.00
2012-11-16,47.4,40.0,36.0,32.6,31.2,29.4,83,71,53,30.22,30.07,2,0,3,0.00
2012-11-17,54.7,44.3,38.6,37.9,34.2,30.5,80,68,51,30.41,30.22,1,0,2,0.00
2012-11-18,51.2,41.8,34.5,38.8,35.5,31.6,91,79,60,30.45,30.35,1,0,1,0.00
2012-11-19,52.2,41.8,34.4,41.4,36.3,31.8,93,81,66,30.35,30.03,1,0,1,0.00
2012-11-20,38.7,34.6,32.7,37.1,33.4,31.7,97,95,93,30.02,29.96,0,0,0,0.00
2012-11-21,56.9,45.7,39.2,36.9,32.5,30.3,77,62,41,30.02,29.93,0,0,0,0.00
2012-11-22,58.0,45.0,35.7,44.7,39.0,32.1,93,80,59,30.05,29.91,1,0,3,0.00
2012-11-23,58.5,45.9,33.2,47.8,42.1,32.4,98,88,61,29.91,29.45,2,0,6,0.01
2012-11-24,49.2,41.7,36.1,46.4,27.9,21.8,90,58,48,29.61,29.44,8,3,12,0.00
2012-11-25,41.5,37.4,34.4,28.4,24.7,20.4,68,60,54,29.73,29.60,7,2,9,0.00
2012-11-26,50.2,40.7,33.8,29.3,26.2,23.8,70,57,39,30.03,29.72,5,1,5,0.00
2012-11-27,36.8,35.0,32.6,35.6,32.8,24.6,98,92,72,30.07,29.98,0,0,1,0.32
2012-11-28,42.0,37.0,33.2,35.3,32.0,29.5,94,83,66,30.00,29.95,1,0,1,0.06
2012-11-29,43.1,39.5,37.1,30.5,29.6,28.6,72,68,57,30.12,30.03,4,2,5,0.00
2012-11-30,44.0,36.0,33.0,32.6,29.1,27.8,83,76,61,30.18,30.08,0,0,0,0.00
2012-12-6,42.2,34.8,28.8,25.1,22.7,21.1,86,62,47,30.13,30.04,1,0,4,0.00
2012-12-7,41.2,34.5,27.5,40.7,32.7,24.3,100,93,83,30.06,29.81,0,0,0,0.17
2012-12-8,49.8,45.3,40.2,49.5,45.0,39.7,99,99,98,29.80,29.64,0,0,1,0.26
2012-12-9,48.3,44.2,41.6,48.0,42.1,37.4,99,92,77,30.04,29.78,2,0,4,0.24
2012-12-10,56.1,50.0,43.5,56.1,49.9,43.0,100,99,98,29.79,29.32,1,0,2,0.04
2012-12-11,51.5,46.9,43.6,51.2,41.3,36.1,99,82,57,29.73,29.37,4,1,9,0.00
2012-12-12,45.1,39.9,34.4,31.0,29.6,27.9,86,67,54,30.21,30.12,2,0,4,0.00
2012-12-13,47.2,36.8,29.6,34.2,30.1,27.5,95,78,53,30.24,30.10,1,0,2,0.00
2012-12-14,52.6,39.2,28.3,32.4,29.3,26.3,93,70,39,30.09,29.90,4,1,4,0.00
2012-12-15,47.8,39.3,31.1,37.2,32.7,28.4,93,78,60,30.10,29.99,0,0,1,0.00
2012-12-16,44.2,43.1,42.0,42.5,40.6,36.5,96,91,80,29.99,29.71,6,3,9,0.18
2012-12-17,43.2,41.0,39.0,42.9,40.5,38.2,99,98,96,29.70,29.42,1,0,3,0.24
2012-12-18,55.0,47.5,43.3,51.0,44.7,37.4,100,91,74,29.40,29.22,6,2,14,0.55
2012-12-19,46.9,43.8,41.9,36.3,33.7,31.6,72,68,60,29.56,29.38,6,3,15,0.00
2012-12-20,44.8,41.7,34.8,42.6,35.3,30.8,92,78,63,29.98,29.62,5,1,10,0.01
2012-12-21,57.3,48.4,40.6,56.7,45.4,33.3,98,89,73,29.57,28.86,13,8,19,1.37